Current weather by "City, St" or "zip code"  
 

Current Conditions: Glens Falls, Floyd Bennett Memorial Airport, NY

Overcast


62.0 F

Last Updated on Oct 21 2021, 12:53 pm EDT
Humidity: 70%
Wind Speed: S 5.8 mph
Barometer 29.93 in
Dewpoint: 52.0 F
Visibility: 10.00 mi
Precip: Trace
Heat Index: NA
Wind Chill: 62 F
Current conditions at:

Glens Falls, Floyd Bennett Memorial Airport, NY (KGFL)

Lat: 43.34111 Lon: 73.61056

Local Radar Image active severe weather and emergency alerts image image weather storm and storm spotter reports image weather observation monitoring service image
Local
Radar
Active
Alerts
Storm Reports Obs
Monitoring

Sign-up For Email & Text Message Weather Alert Notification Services



Advertise Here

Observation History for Glens Falls, Floyd Bennett Memorial Airport, NY


Time Wind
(mph)
Vis
(mi)
Weather Precip (in) Temperature (F) Relative
Humidity
Wind
Chill
(F)
Heat
Index
(F)
Pressure
Air Dwpt altimeter
(in)
sea level
(mb)
Rmks
12:53 pm EDT S 5.8 10.00 Overcast Trace 62.0 52.0 70% 62 NA 29.93 1013.7
11:53 am EDT S 8.1 10.00 Overcast -- 61.0 52.0 72% 60 NA 29.93 1013.7
10:53 am EDT S 6.9 10.00 Mostly Cloudy Trace 59.0 52.0 78% 58 NA 29.96 1014.4
9:53 am EDT S 6.9 10.00 Light Rain Trace 59.0 50.0 72% 58 NA 29.98 1015.1
8:53 am EDT N 0.0 10.00 Partly Cloudy -- 57.0 51.1 81% NA NA 29.97 1015.1
7:53 am EDT S 4.6 10.00 Mostly Cloudy -- 53.0 50.0 89% 52 NA 29.97 1014.8
6:53 am EDT S 3.5 10.00 Overcast -- 53.0 48.9 86% NA NA 29.96 1014.6
5:53 am EDT S 4.6 10.00 Fair -- 52.0 48.9 89% 51 NA 29.97 1014.7
4:53 am EDT N 0.0 10.00 Fair -- 48.0 45.0 89% NA NA 29.96 1014.6
3:53 am EDT N 0.0 10.00 Fair -- 45.0 44.1 97% NA NA 29.96 1014.7
2:53 am EDT N 0.0 10.00 Fair -- 50.0 46.0 86% NA NA 29.97 1015.0
1:53 am EDT N 0.0 10.00 A Few Clouds -- 50.0 46.0 86% NA NA 29.97 1015.1
12:53 am EDT N 0.0 10.00 A Few Clouds -- 53.0 46.9 80% NA NA 29.98 1015.2
11:53 pm EDT N 0.0 10.00 Fair -- 54.0 46.9 77% NA NA 29.98 1015.2
10:53 pm EDT N 0.0 10.00 Overcast -- 62.0 46.0 56% NA NA 29.96 1014.6
9:53 pm EDT W 5.8 10.00 Mostly Cloudy -- 64.0 46.0 52% NA NA 29.96 1014.4
8:53 pm EDT 4.6 10.00 Partly Cloudy Trace 65.0 46.0 51% NA NA 29.95 1014.4
7:53 pm EDT W 8.1 10.00 Overcast -- 67.0 42.1 41% NA NA 29.94 1014.2
6:53 pm EDT W 9.2 10.00 Mostly Cloudy -- 68.0 39.9 36% NA NA 29.93 1013.6
5:53 pm EDT W 8.1 G 17.3 10.00 A Few Clouds -- 70.0 44.1 39% NA NA 29.90 1012.8
4:53 pm EDT 6.9 10.00 A Few Clouds -- 72.0 52.0 50% NA NA 29.89 1012.3
3:53 pm EDT N 0.0 10.00 Partly Cloudy -- 71.0 54.0 55% NA NA 29.89 1012.3
2:53 pm EDT SE 5.8 10.00 Fair -- 70.0 55.0 59% NA NA 29.89 1012.4
1:53 pm EDT S 8.1 10.00 Fair -- 69.0 55.0 61% NA NA 29.90 1012.7

Regional Weather Observation


Middlebury State Airport, VT (K6B0)

Overcast
48.0 F

Rutland-Southern Vermont Regional Airport, VT (KRUT)

Light Rain
60.0 F

Schenectady Airport, NY (KSCH)

Partly Cloudy
68.0 F

Fulton County Airport, NY (KNY0)

Fair
68.0 F

Bennington Morse State Airport, VT (KDDH)

Partly Cloudy
71.0 F

Albany International Airport, NY (KALB)

Mostly Cloudy
68.0 F

Advertise Here


Advertise Here